[[{"header":{"parameterUnit":"m.s-1","parameterCategory":1,"la1":30.2991,"la2":30.254,"lo1":-89.0895,"lo2":-89.0444,"dy":0.0017,"dx":0.0017,"nx":28,"ny":28,"refTime":"2025-04-02T03:00:00:Z","depth":0,"parameterNumber":2,"parameterNumberName":"U-component_of_WINDS"},"data":[0,0,0,0,0,0,0,0,0,0,0,0,0,0,0,0,0,0,0,0,0,0,0,0,0,0,0,0,0,0,0,0,0,0,0,0,0,0,0,0,0,0,0,0,0,0,0,0,0,0,0,0,0,0,0,0,0,0,-3.6567,-3.6568,0,-3.6669,-3.667,-3.6671,-3.6691,-3.669,-3.6689,-3.6688,-3.6793,-3.6797,-3.68,0,0,0,0,0,0,0,0,0,0,0,0,0,-3.639,-3.6393,-3.6566,-3.6568,-3.6569,-3.6668,-3.667,-3.6671,-3.6691,-3.669,-3.6689,-3.6688,-3.6792,-3.6796,-3.6801,0,0,0,0,0,0,0,0,0,0,0,0,0,-3.6477,-3.6394,-3.6566,-3.6591,-3.6594,-3.6668,-3.667,-3.6672,-3.6691,-3.669,-3.6689,-3.6688,-3.6791,-3.6796,-3.6801,-3.6858,0,0,-3.6817,-3.682,0,0,0,0,0,0,0,0,-3.6472,-3.6483,-3.6586,-3.6589,-3.6593,-3.6666,-3.6646,-3.6734,-3.6691,-3.6654,-3.6688,-3.6687,-3.6752,-3.676,-3.6782,-3.6863,-3.6867,-3.6818,-3.6821,-3.6823,-3.6825,0,0,0,0,0,0,0,-3.6466,-3.6479,-3.6607,-3.6587,-3.6592,-3.6597,-3.6608,-3.6663,-3.6709,-3.6657,-3.6659,-3.6671,-3.6754,-3.6777,-3.6785,-3.6869,-3.6818,-3.6822,-3.6826,-3.6828,-3.7002,-3.7003,0,0,0,0,0,0,-3.6455,-3.6474,-3.6604,-3.661,-3.6528,-3.6601,-3.6614,-3.6644,-3.6708,-3.6717,-3.6672,-3.6671,-3.6768,-3.6778,-3.6788,-3.6859,-3.6823,-3.6828,-3.6831,-3.7,-3.7002,-3.7003,0,0,0,0,0,0,-3.6451,-3.6467,-3.66,-3.6542,-3.656,-3.6606,-3.6639,-3.6646,-3.667,-3.6719,-3.6727,-3.6687,-3.6768,-3.6781,-3.6841,-3.6863,-3.6831,-3.6836,-3.6998,-3.7001,-3.7003,-3.7,0,0,0,0,0,0,-3.6446,-3.6465,-3.6487,-3.6543,-3.6563,-3.6649,-3.6641,-3.6649,-3.6679,-3.6679,-3.6736,-3.6744,-3.6768,-3.6832,-3.6846,-3.6869,-3.684,-3.6997,-3.6999,-3.7002,-3.6998,-3.7002,-3.7005,0,0,0,0,0,-3.644,-3.6482,-3.6488,-3.6503,-3.6591,-3.6651,-3.6662,-3.6689,-3.668,-3.6703,-3.6735,-3.6742,-3.6858,-3.6838,-3.6854,-3.6879,-3.6995,-3.6999,-3.7002,-3.6997,-3.7001,-3.7005,0,0,0,0,0,0,-3.6428,-3.649,-3.6497,-3.6558,-3.6599,-3.6654,-3.6683,-3.6693,-3.6737,-3.6735,-3.6767,-3.678,-3.6837,-3.6865,-3.6841,-3.6938,-3.6926,-3.6933,-3.6917,-3.6922,-3.6925,-3.6917,-3.6844,0,0,0,0,0,-3.6432,-3.6475,-3.6528,-3.6577,-3.6597,-3.6636,-3.6664,-3.6681,-3.6724,-3.6742,-3.6778,-3.682,-3.6866,-3.6896,-3.6941,-3.7003,-3.7015,-3.7028,-3.7031,-3.7034,-3.7038,-3.7073,-3.7079,-3.7014,-3.7014,-3.7014,0,0,-3.6442,-3.6481,-3.6506,-3.6575,-3.6609,-3.6653,-3.6651,-3.6698,-3.6731,-3.6749,-3.6807,-3.6835,-3.6884,-3.6945,-3.6974,-3.6969,-3.7059,-3.7038,-3.7039,-3.7043,-3.7077,-3.7083,-3.7088,-3.7016,-3.7016,-3.7015,0,0,-3.6482,-3.6516,-3.6561,-3.6594,-3.6645,-3.6671,-3.6682,-3.6736,-3.6755,-3.6814,-3.6829,-3.6869,-3.6948,-3.6982,-3.701,-3.7064,-3.7072,-3.7078,-3.7094,-3.7127,-3.7132,-3.7137,-3.7155,-3.7162,-3.7083,-3.7083,-3.7083,0,-3.6487,-3.6554,-3.6582,-3.6629,-3.6658,-3.6677,-3.6723,-3.6754,-3.6817,-3.6838,-3.6832,-3.6932,-3.6966,-3.7035,-3.7048,-3.707,-3.7084,-3.7071,-3.7129,-3.7134,-3.7139,-3.7157,-3.7164,-3.7083,-3.7083,-3.7083,-3.7083,0,-3.6558,-3.6604,-3.6634,-3.6694,-3.6728,-3.6773,-3.6809,-3.684,-3.6854,-3.6881,-3.6941,-3.6983,-3.7037,-3.7055,-3.707,-3.7127,-3.7122,-3.7123,-3.7112,-3.7145,-3.7162,-3.7169,-3.7083,-3.7083,-3.7083,-3.7083,0,0,-3.6591,-3.6667,-3.6678,-3.6705,-3.6763,-3.6799,-3.6846,-3.6899,-3.6924,-3.6968,-3.7007,-3.7074,-3.7075,-3.7107,-3.7126,-3.7155,-3.7194,-3.7152,-3.7154,-3.7158,-3.7258,-3.7256,-3.7264,-3.7201,-3.7202,-3.7204,-3.7254,0,-3.6637,-3.6721,-3.6748,-3.6817,-3.686,-3.6879,-3.692,-3.696,-3.6987,-3.7028,-3.7057,-3.7104,-3.7102,-3.7121,-3.7151,-3.7183,-3.7215,-3.718,-3.7238,-3.724,-3.7223,-3.7273,-3.7271,-3.7317,-3.7261,-3.7262,-3.7263,0,-3.6702,-3.6746,-3.6819,-3.6871,-3.6891,-3.6927,-3.6977,-3.7016,-3.7062,-3.7079,-3.7115,-3.7132,-3.7182,-3.717,-3.7239,-3.7214,-3.724,-3.726,-3.7262,-3.7267,-3.7252,-3.7278,-3.7332,-3.7338,-3.7274,-3.7273,-3.7272,0,-3.6718,-3.6795,-3.6849,-3.6872,-3.6935,-3.696,-3.6987,-3.7032,-3.7062,-3.7107,-3.7127,-3.7177,-3.7204,-3.7242,-3.7272,-3.7261,-3.7339,-3.7329,-3.7354,-3.7353,-3.7368,-3.7367,-3.7425,-3.7387,-3.7387,-3.7387,-3.7387,0,-3.6765,-3.6809,-3.6857,-3.689,-3.694,-3.6972,-3.702,-3.7049,-3.7089,-3.7128,-3.7148,-3.7185,-3.7223,-3.7265,-3.7289,-3.7342,-3.7355,-3.737,-3.7376,-3.7367,-3.7365,-3.7383,-3.7381,-3.7389,-3.7388,-3.7388,-3.7388,0,-3.6791,-3.6825,-3.6884,-3.6939,-3.6954,-3.6988,-3.7035,-3.7068,-3.7096,-3.7145,-3.7159,-3.7203,-3.7253,-3.7287,-3.7352,-3.7368,-3.7425,-3.7431,-3.7409,-3.7412,-3.7435,-3.7432,-3.7506,-3.7517,-3.7472,-3.7473,-3.7473,0,-3.6818,-3.6852,-3.6911,-3.6938,-3.6965,-3.701,-3.704,-3.7073,-3.7104,-3.7159,-3.7186,-3.7237,-3.728,-3.7359,-3.7397,-3.7446,-3.7453,-3.7475,-3.746,-3.7451,-3.7452,-3.7449,-3.7452,-3.7477,-3.7477,-3.7478,-3.7478,0,-3.6863,-3.6878,-3.6921,-3.697,-3.7006,-3.7047,-3.7087,-3.7109,-3.7149,-3.7183,-3.7234,-3.7267,-3.7333,-3.7383,-3.7437,-3.7465,-3.7478,-3.7483,-3.7491,-3.7482,-3.7467,-3.7475,-3.7414,-3.748,-3.748,-3.748,-3.748,-3.748,-3.689,-3.6921,-3.6967,-3.7014,-3.7048,-3.7086,-3.7119,-3.7151,-3.7194,-3.725,-3.7267,-3.732,-3.7366,-3.7438,-3.7468,-3.751,-3.7509,-3.7521,-3.7524,-3.7526,-3.7525,-3.7462,-3.752,-3.752,-3.752,-3.752,-3.752,0,-3.6935,-3.6966,-3.7009,-3.7065,-3.7102,-3.7111,-3.7157,-3.7187,-3.7233,-3.7275,-3.7317,-3.7375,-3.7425,-3.7467,-3.7518,-3.7544,-3.7551,-3.7556,-3.7554,-3.756,-3.7524,-3.7511,-3.7549,-3.7549,-3.7549,-3.7549,-3.7549,-3.7549,-3.6963,-3.7016,-3.7036,-3.7106,-3.7137,-3.7188,-3.7213,-3.7248,-3.7281,-3.7346,-3.7387,-3.7414,-3.7456,-3.751,-3.7556,-3.7567,-3.7585,-3.7588,-3.76,-3.7566,-3.7563,-3.7559,-3.7547,-3.7592,-3.7592,-3.7633,-3.7633,-3.7633]},{"header":{"parameterUnit":"m.s-1","parameterCategory":1,"la1":30.2991,"la2":30.254,"lo1":-89.0895,"lo2":-89.0444,"dy":0.0017,"dx":0.0017,"nx":28,"ny":28,"refTime":"2025-04-02T03:00:00:Z","depth":0,"parameterNumber":3,"parameterNumberName":"V-component_of_WINDS"},"data":[0,0,0,0,0,0,0,0,0,0,0,0,0,0,0,0,0,0,0,0,0,0,0,0,0,0,0,0,0,0,0,0,0,0,0,0,0,0,0,0,0,0,0,0,0,0,0,0,0,0,0,0,0,0,0,0,0,0,6.1166,6.1166,0,6.1244,6.1244,6.1245,6.1201,6.1199,6.1197,6.1195,6.1273,6.1277,6.1281,0,0,0,0,0,0,0,0,0,0,0,0,0,6.0978,6.0982,6.1165,6.1166,6.1167,6.1243,6.1244,6.1246,6.1202,6.1199,6.1196,6.1194,6.1271,6.1276,6.1281,0,0,0,0,0,0,0,0,0,0,0,0,0,6.1058,6.0983,6.1165,6.1155,6.1155,6.1243,6.1245,6.1246,6.1202,6.1199,6.1196,6.1193,6.127,6.1276,6.1282,6.1385,0,0,6.1301,6.1303,0,0,0,0,0,0,0,0,6.1054,6.1065,6.1155,6.1156,6.1156,6.1209,6.1207,6.1292,6.1203,6.1184,6.1195,6.1191,6.1254,6.1261,6.1283,6.1388,6.1392,6.1301,6.1305,6.1307,6.1309,0,0,0,0,0,0,0,6.1048,6.1062,6.1196,6.1157,6.1157,6.1146,6.1154,6.1223,6.1236,6.1185,6.1182,6.1192,6.1254,6.1277,6.1285,6.1393,6.1301,6.1306,6.131,6.1313,6.1589,6.1593,0,0,0,0,0,0,6.1044,6.1057,6.1194,6.1199,6.1096,6.1152,6.1161,6.1195,6.1235,6.1238,6.1195,6.119,6.1268,6.1277,6.1287,6.1412,6.1307,6.1313,6.1317,6.1586,6.159,6.1594,0,0,0,0,0,0,6.104,6.1056,6.1191,6.1127,6.1144,6.1159,6.1198,6.1199,6.1222,6.1243,6.1245,6.1217,6.1266,6.1278,6.1362,6.1414,6.1316,6.1322,6.1581,6.1587,6.1592,6.1662,0,0,0,0,0,0,6.1035,6.1055,6.1094,6.1129,6.1147,6.1264,6.1201,6.1202,6.1233,6.1227,6.1264,6.1267,6.1265,6.1353,6.1368,6.1421,6.1326,6.1577,6.1584,6.159,6.1655,6.1669,6.1681,0,0,0,0,0,6.1028,6.111,6.1096,6.1113,6.1196,6.1267,6.1278,6.1274,6.1238,6.1277,6.1291,6.1265,6.1406,6.1361,6.1378,6.1434,6.1573,6.1582,6.159,6.1649,6.1666,6.1681,0,0,0,0,0,0,6.108,6.1114,6.11,6.1195,6.1229,6.1259,6.1309,6.1292,6.1336,6.1329,6.1322,6.1331,6.1418,6.1434,6.1384,6.1537,6.1484,6.1496,6.1523,6.154,6.1553,6.1547,6.1331,0,0,0,0,0,6.1103,6.1158,6.1184,6.1266,6.1283,6.1294,6.1324,6.1319,6.1353,6.1367,6.1387,6.1421,6.1473,6.1507,6.1556,6.1657,6.1665,6.1704,6.1717,6.1727,6.1738,6.1795,6.1813,6.1621,6.1621,6.1621,0,0,6.115,6.1175,6.121,6.1277,6.1302,6.136,6.1306,6.1368,6.1411,6.1376,6.1457,6.1473,6.151,6.1604,6.1645,6.1619,6.1793,6.1738,6.1746,6.1751,6.1806,6.1824,6.184,6.1627,6.1626,6.1625,0,0,6.1265,6.1289,6.1361,6.1389,6.1429,6.1435,6.1453,6.1487,6.1497,6.1577,6.1554,6.1604,6.1693,6.1722,6.1748,6.1877,6.1856,6.1893,6.1962,6.2018,6.2033,6.2046,6.2094,6.2111,6.1904,6.1904,6.1904,0,6.1319,6.1404,6.14,6.1465,6.1496,6.1469,6.1542,6.1569,6.1622,6.1644,6.1615,6.1728,6.1751,6.1852,6.1884,6.1905,6.1926,6.1889,6.2031,6.2045,6.2057,6.2103,6.2121,6.1908,6.1908,6.1907,6.1907,0,6.1469,6.1529,6.1582,6.1637,6.1673,6.1742,6.1749,6.1786,6.1778,6.1789,6.1872,6.19,6.1955,6.1978,6.197,6.2079,6.2062,6.2032,6.1978,6.208,6.2123,6.214,6.1914,6.1913,6.1912,6.1911,0,0,6.1618,6.1671,6.1691,6.1717,6.176,6.1806,6.1874,6.1929,6.1963,6.2001,6.2059,6.2136,6.211,6.214,6.2135,6.2184,6.2287,6.2148,6.2149,6.2175,6.2411,6.2434,6.2454,6.2274,6.2277,6.2279,6.2408,0,6.1738,6.1858,6.1857,6.1969,6.2025,6.2001,6.2061,6.2094,6.2106,6.2156,6.2168,6.2224,6.2184,6.2202,6.225,6.2265,6.2335,6.2255,6.2328,6.2331,6.2321,6.2476,6.2501,6.2621,6.2425,6.2428,6.243,0,6.1893,6.1939,6.2057,6.2094,6.2118,6.2171,6.2223,6.2271,6.2308,6.2314,6.2349,6.2337,6.2407,6.2352,6.2449,6.2395,6.2425,6.2437,6.2442,6.2449,6.2387,6.249,6.2659,6.2678,6.2456,6.2454,6.2452,0,6.1993,6.2084,6.2166,6.2188,6.2234,6.2272,6.2293,6.2328,6.2362,6.2407,6.2429,6.2481,6.251,6.2551,6.2554,6.2513,6.2653,6.2597,6.266,6.2661,6.2691,6.2689,6.287,6.2708,6.2708,6.2708,6.2707,0,6.2128,6.2201,6.2212,6.2263,6.2345,6.2343,6.2424,6.2441,6.2473,6.2527,6.2509,6.256,6.2561,6.2613,6.2616,6.2698,6.271,6.2717,6.2717,6.272,6.2719,6.274,6.2732,6.2713,6.2712,6.2711,6.271,0,6.2253,6.2263,6.2352,6.2388,6.2399,6.2458,6.2489,6.2538,6.2549,6.2618,6.2634,6.2651,6.2712,6.272,6.279,6.2792,6.2891,6.2881,6.2879,6.2878,6.2941,6.2936,6.3142,6.3169,6.2989,6.2991,6.2992,0,6.2339,6.2395,6.2438,6.2474,6.2497,6.2554,6.259,6.2591,6.2628,6.2677,6.2721,6.278,6.2828,6.2927,6.2945,6.3,6.2993,6.3061,6.3001,6.3002,6.2996,6.2993,6.3,6.3073,6.3075,6.3077,6.3078,0,6.2491,6.2494,6.2546,6.2601,6.2644,6.2686,6.2726,6.2756,6.2763,6.2806,6.2869,6.2906,6.298,6.304,6.3094,6.3115,6.3099,6.3097,6.3115,6.3118,6.3115,6.312,6.2912,6.3092,6.3091,6.309,6.3089,6.3088,6.26,6.265,6.2689,6.2748,6.2779,6.2818,6.2866,6.2884,6.2937,6.2998,6.2995,6.3065,6.3103,6.3175,6.32,6.3255,6.3232,6.3258,6.3264,6.3271,6.3278,6.3106,6.3265,6.3264,6.3264,6.3263,6.3263,0,6.2753,6.2778,6.2832,6.289,6.2937,6.2918,6.2962,6.3002,6.3064,6.3102,6.315,6.3224,6.3282,6.3306,6.3364,6.3404,6.3398,6.3419,6.3417,6.3422,6.3294,6.3274,6.3423,6.3423,6.3423,6.3423,6.3423,6.3423,6.2838,6.2922,6.293,6.303,6.3054,6.3123,6.315,6.3186,6.3216,6.33,6.3349,6.3365,6.3397,6.3457,6.3511,6.3516,6.3539,6.3565,6.3567,6.3447,6.3431,6.3416,6.3397,6.3569,6.3569,6.3691,6.3692,6.3693]}]]